Location: Arroyo Grande
(40.2671°N, 4.2512°W)
Time: 08:32:01
(UTC+00:00)

Cosmos 2322 - Pass Details

Date: 03 February 2023
Orbit: 841 x 854 km, 71.0° (Epoch: 26 March)

Event Time Altitude Azimuth Distance (km) Brightness Sun altitude
Rises 18:50:27 0° 174° (S) 3,403 6.9 -14.2°
Reaches altitude 10° 18:53:08 10° 164° (SSE) 2,473 6.1 -14.7°
Maximum altitude 18:58:04 31° 103° (ESE) 1,443 4.4 -15.6°
Enters shadow 19:00:21 23° 64° (ENE) 1,723 4.7 -16.1°
